[[{"header":{"parameterUnit":"m.s-1","parameterCategory":1,"la1":30.2992,"la2":30.254,"lo1":-89.0895,"lo2":-89.0443,"dy":0.0025,"dx":0.0025,"nx":19,"ny":19,"refTime":"2026-05-13T09:00:00:Z","depth":0,"parameterNumber":2,"parameterNumberName":"U-component_of_WINDS"},"data":[0,0,0,-0.1193,-0.1191,-0.1073,-0.1072,-0.0924,-0.0923,0,0,0,0,0,0,0,0,0,0,0,-0.1232,-0.1231,-0.1193,-0.119,-0.1073,-0.1072,-0.0925,-0.0923,0,0,0,0,0,0,0,0,0,0,0,-0.1232,-0.1231,-0.123,-0.119,-0.1073,-0.1072,-0.0925,-0.1012,0,0,0,0,0,0,0,0,0,0,-0.1126,-0.1166,-0.1231,-0.123,-0.1189,-0.1073,-0.1072,-0.1016,-0.1007,-0.0979,0,-0.0958,0,-0.0938,-0.0913,-0.0913,0,0,0,-0.1187,-0.1174,-0.1139,-0.123,-0.1188,-0.1073,-0.1125,-0.1011,-0.1,-0.0967,-0.0956,-0.095,-0.0936,-0.0913,-0.0912,-0.0768,-0.0768,0,0,-0.1194,-0.1212,-0.1147,-0.1132,-0.1153,-0.1129,-0.1121,-0.1004,-0.0993,-0.0955,-0.0947,-0.0933,-0.0912,-0.0911,-0.0769,-0.0768,0,0,0,-0.1214,-0.1217,-0.1185,-0.1138,-0.1117,-0.1125,-0.1117,-0.0998,-0.0986,-0.0945,-0.0932,-0.0911,-0.0909,-0.0769,-0.0768,-0.076,0,0,0,-0.1218,-0.1229,-0.1188,-0.1198,-0.1119,-0.1057,-0.1114,-0.0994,-0.0981,-0.0932,-0.0911,-0.0908,-0.077,-0.0769,-0.0762,-0.0753,0,0,0,-0.1238,-0.1231,-0.1216,-0.1199,-0.1149,-0.1058,-0.1039,-0.0991,-0.0972,-0.0913,-0.0907,-0.077,-0.0769,-0.0763,-0.0755,-0.0718,0,0,0,-0.1264,-0.1211,-0.1216,-0.1151,-0.1151,-0.1055,-0.104,-0.0968,-0.0916,-0.091,-0.077,-0.0768,-0.0763,-0.0756,-0.072,-0.069,-0.068,0,0,-0.1208,-0.1205,-0.1165,-0.1166,-0.1075,-0.1072,-0.0977,-0.0912,-0.0889,-0.0809,-0.0805,-0.0761,-0.0755,-0.0719,-0.0621,-0.0613,0,0,0,-0.1153,-0.1125,-0.1096,-0.1048,-0.0997,-0.0952,-0.0899,-0.0874,-0.0805,-0.0853,-0.0739,-0.0734,-0.0712,-0.0697,-0.069,-0.0669,-0.0763,-0.0763,-0.0763,-0.1099,-0.1072,-0.1004,-0.0962,-0.0915,-0.086,-0.0819,-0.0775,-0.0763,-0.0736,-0.0712,-0.0655,-0.0638,-0.0633,-0.0611,-0.0695,-0.0695,-0.0695,-0.0695,-0.1012,-0.0966,-0.0949,-0.0876,-0.0847,-0.0785,-0.0728,-0.0721,-0.0657,-0.0672,-0.0651,-0.0669,-0.0626,-0.0605,-0.0694,-0.0694,-0.0695,-0.0695,-0.0695,-0.0972,-0.0945,-0.0916,-0.0842,-0.0787,-0.0746,-0.0685,-0.0661,-0.0638,-0.0618,-0.0587,-0.0587,-0.0582,-0.0605,-0.0605,-0.0605,-0.0605,-0.0604,-0.0604,-0.0941,-0.0909,-0.0861,-0.0801,-0.0765,-0.0715,-0.0658,-0.0621,-0.0574,-0.0561,-0.0561,-0.0548,-0.0628,-0.0647,-0.0601,-0.0602,-0.0602,-0.0602,-0.0603,-0.0859,-0.0874,-0.08,-0.0764,-0.069,-0.0635,-0.0606,-0.0533,-0.0499,-0.0469,-0.046,-0.0524,-0.0519,-0.0524,-0.0539,-0.0469,-0.0469,-0.0469,-0.0469,-0.0824,-0.082,-0.0738,-0.0681,-0.0624,-0.0589,-0.0502,-0.0456,-0.041,-0.0386,-0.0393,-0.0412,-0.0419,-0.041,-0.0417,-0.0431,-0.0335,-0.0334,-0.0334,-0.0771,-0.076,-0.0692,-0.0649,-0.0588,-0.0536,-0.0453,-0.0387,-0.0338,-0.0328,-0.0367,-0.0372,-0.0403,-0.0415,-0.0406,-0.0418,-0.0443,0,0]},{"header":{"parameterUnit":"m.s-1","parameterCategory":1,"la1":30.2992,"la2":30.254,"lo1":-89.0895,"lo2":-89.0443,"dy":0.0025,"dx":0.0025,"nx":19,"ny":19,"refTime":"2026-05-13T09:00:00:Z","depth":0,"parameterNumber":3,"parameterNumberName":"V-component_of_WINDS"},"data":[0,0,0,-1.5007,-1.5007,-1.5034,-1.5034,-1.5052,-1.5052,0,0,0,0,0,0,0,0,0,0,0,-1.4988,-1.4988,-1.5007,-1.5007,-1.5034,-1.5034,-1.5052,-1.5052,0,0,0,0,0,0,0,0,0,0,0,-1.4989,-1.4988,-1.4988,-1.5007,-1.5034,-1.5034,-1.5052,-1.5037,0,0,0,0,0,0,0,0,0,0,-1.5014,-1.4987,-1.4988,-1.4988,-1.5007,-1.5034,-1.5034,-1.5037,-1.5038,-1.5032,0,-1.5025,0,-1.5038,-1.5052,-1.5052,0,0,0,-1.5014,-1.4986,-1.5003,-1.4988,-1.5007,-1.5034,-1.5024,-1.5038,-1.5039,-1.5034,-1.5025,-1.5026,-1.5039,-1.5052,-1.5052,-1.4993,-1.4993,0,0,-1.5013,-1.4988,-1.5002,-1.5003,-1.4999,-1.5023,-1.5025,-1.5039,-1.5027,-1.5025,-1.5027,-1.5039,-1.5052,-1.5052,-1.4994,-1.4993,0,0,0,-1.5003,-1.4986,-1.5003,-1.5002,-1.5008,-1.5024,-1.5026,-1.5027,-1.5034,-1.5027,-1.5039,-1.5052,-1.5052,-1.4995,-1.4994,-1.4937,0,0,0,-1.5003,-1.4981,-1.5002,-1.4987,-1.5008,-1.5018,-1.5013,-1.5033,-1.5036,-1.5039,-1.5052,-1.5052,-1.4995,-1.4994,-1.494,-1.4912,0,0,0,-1.499,-1.498,-1.498,-1.4985,-1.4996,-1.5018,-1.5027,-1.5035,-1.5043,-1.5052,-1.5052,-1.4996,-1.4994,-1.4942,-1.4917,-1.4887,0,0,0,-1.4969,-1.493,-1.4979,-1.4941,-1.4996,-1.4984,-1.5027,-1.502,-1.5021,-1.5052,-1.4995,-1.4994,-1.4943,-1.492,-1.489,-1.4854,-1.4838,0,0,-1.4906,-1.4922,-1.4901,-1.4946,-1.4918,-1.4982,-1.4947,-1.4972,-1.4996,-1.4993,-1.4992,-1.4939,-1.4917,-1.4888,-1.4765,-1.4752,0,0,0,-1.4873,-1.4857,-1.4856,-1.4856,-1.4874,-1.4887,-1.4921,-1.493,-1.4929,-1.4989,-1.4923,-1.4911,-1.4894,-1.4878,-1.4867,-1.4853,-1.4986,-1.4987,-1.4987,-1.4744,-1.4778,-1.4745,-1.4782,-1.4782,-1.4817,-1.4819,-1.4838,-1.4872,-1.4856,-1.4853,-1.4775,-1.4755,-1.4747,-1.4732,-1.4841,-1.4841,-1.4841,-1.484,-1.4652,-1.4633,-1.4681,-1.4665,-1.4701,-1.4688,-1.4721,-1.4746,-1.4738,-1.4779,-1.4766,-1.4804,-1.4732,-1.472,-1.4837,-1.4837,-1.4838,-1.4838,-1.4838,-1.4568,-1.4564,-1.4578,-1.4581,-1.458,-1.462,-1.461,-1.4644,-1.4676,-1.4664,-1.4663,-1.4664,-1.4665,-1.4662,-1.4662,-1.4661,-1.4661,-1.4661,-1.4661,-1.4473,-1.449,-1.4478,-1.4495,-1.4499,-1.4509,-1.4546,-1.4551,-1.4564,-1.459,-1.459,-1.4622,-1.472,-1.4741,-1.4656,-1.4657,-1.4658,-1.4658,-1.4659,-1.4358,-1.439,-1.4371,-1.4375,-1.4398,-1.4393,-1.4439,-1.4445,-1.4455,-1.4449,-1.4487,-1.4555,-1.4572,-1.4581,-1.4598,-1.4482,-1.4482,-1.4482,-1.4482,-1.4283,-1.4297,-1.4285,-1.4289,-1.4298,-1.4336,-1.4312,-1.434,-1.4375,-1.4382,-1.4405,-1.4433,-1.4441,-1.4454,-1.4466,-1.4482,-1.4338,-1.4338,-1.4338,-1.4213,-1.4229,-1.4201,-1.4236,-1.4257,-1.4273,-1.4251,-1.4253,-1.4299,-1.4333,-1.4388,-1.4394,-1.4439,-1.4453,-1.4482,-1.45,-1.4531,0,0]}]]